Location: Burzi?i
(45.0869°N, 16.0577°E)
Time: 10:42:29
(UTC+00:00)

Feng Yun 1-1 Rocket - Pass Details

Date: 29 October 2020
Orbit: 829 x 934 km, 99.2° (Epoch: 27 November)

Event Time Altitude Azimuth Distance (km) Brightness Sun altitude
Rises 16:38:18 0° 157° (SSE) 3,559 7.3 -9.5°
Reaches altitude 10° 16:40:43 10° 155° (SSE) 2,627 6.6 -9.9°
Maximum altitude 16:46:35 73° 72° (ENE) 976 4.4 -10.9°
Drops below altitude 10° 16:52:30 10° 349° (N) 2,649 6.8 -12.0°
Sets 16:54:56 0° 347° (NNW) 3,591 7.5 -12.4°
